Location: *
(6.0000°S, 32.3997°W)
Time: 19:36:02
(UTC+00:00)

NOSS 3-1 (A) - Pass Details

Date: 01 April 2020
Orbit: 757 x 1455 km, 63.4° (Epoch: 25 May)

Event Time Altitude Azimuth Distance (km) Brightness Sun altitude
Rises 21:49:55 0° 340° (NNW) 4,447 7.2 -24.5°
Reaches altitude 10° 21:52:47 10° 341° (NNW) 3,518 6.6 -25.2°
Maximum altitude 22:01:40 82° 68° (ENE) 1,469 4.2 -27.4°
Enters shadow 22:06:35 31° 151° (SSE) 2,298 5.1 -28.6°
